Location: Stavanger
(58.9670°N, 5.7500°E)
Time: 04:10:29
(UTC+01:00)

ISS - Visible Passes

Search period start: 28 February 2017 00:00
Search period end: 10 March 2017 00:00
Orbit: 399 x 408 km, 51.6° (Epoch: 28 February)

Date Brightness Start Highest point End Pass type
(mag) Time Alt. Az. Time Alt. Az. Time Alt. Az.
06 Mar -0.6 06:22:33 10° S 06:24:19 14° SSE 06:26:05 10° ESE visible
07 Mar -0.4 05:31:24 10° SSE 05:31:59 10° SSE 05:32:34 10° SE visible
08 Mar -1.0 06:12:48 10° SSW 06:15:08 18° SSE 06:17:28 10° ESE visible
09 Mar -0.8 05:21:01 11° S 05:22:43 15° SSE 05:24:40 10° ESE visible
